Location: Sevilla
(37.3933°N, 5.9839°W)
Time: 12:32:20
(UTC+02:00)

S-56A Canister/Altair - Pass Details

Date: 23 June 2024
Orbit: 638 x 2488 km, 38.9° (Epoch: 14 July)

Event Time Altitude Azimuth Distance (km) Brightness Sun altitude
Rises 05:29:39 0° 289° (WNW) 5,635 11.7 -15.4°
Reaches altitude 10° 05:33:20 10° 283° (WNW) 4,811 11.3 -14.9°
Maximum altitude 05:46:12 43° 219° (SW) 3,175 10.2 -13.1°
Drops below altitude 10° 05:59:32 10° 154° (SSE) 4,953 11.5 -11.2°
Sets 06:03:26 0° 148° (SSE) 5,808 11.9 -10.6°
